Location: Newark
(12.5331°N, 56.4669°W)
Time: 07:25:45
(UTC+00:00)

Envisat - Pass Details

Date: 26 January 2020
Orbit: 764 x 766 km, 98.1° (Epoch: 20 February)

Event Time Altitude Azimuth Distance (km) Brightness Sun altitude
Rises 09:05:14 0° 43° (NE) 3,217 6.6 -16.4°
Reaches altitude 10° 09:08:39 10° 67° (ENE) 2,291 6.2 -15.6°
Maximum altitude 09:11:17 14° 99° (E) 2,007 6.4 -15.0°
Drops below altitude 10° 09:13:55 10° 131° (SE) 2,290 6.5 -14.3°
Sets 09:17:18 0° 155° (SSE) 3,215 6.9 -13.6°
